Weather History for Westhampton Beach, NY

Change the Weather History Date:

Wednesday, December 5, 2012

  Actual Average Record
Temperature  
Mean Temperature 47 °F -  
Max Temperature 57 °F 45 °F 118 °F (1998)
Min Temperature 36 °F 27 °F 12 °F (2000)
Degree Days  
Heating Degree Days 18    
Moisture  
Dew Point 38 °F    
Average Humidity 65    
Maximum Humidity 90    
Minimum Humidity 43    
Precipitation  
Precipitation 0.01 in - - ()
Sea Level Pressure  
Sea Level Pressure 30.02 in    
Wind  
Wind Speed 12 mph (WNW)    
Max Wind Speed 20 mph    
Max Gust Speed 30 mph    
Visibility 10 miles    
Events Rain    
Averages and records for this station are not official NWS values.
T = Trace of Precipitation, MM = Missing Value Source: NWS Daily Summary

Daily Weather History Graph

Daily Weather History Graph

Search for Another Location

Airport:

Trip Planner

Search our weather history database for the weather conditions in past years. The results will help you decide how hot, cold, wet, or windy it might be!

Date:

Astronomy

Dec. 05, 2012 Rise Set
Actual Time 6:59 AM EST 4:22 PM EST
Civil Twilight 6:29 AM EST 4:53 PM EST
Nautical Twilight 5:54 AM EST 5:27 PM EST
Astronomical Twilight 5:21 AM EST 6:00 PM EST
Moon 11:11 PM EST (12/5) 11:20 AM EST (12/5)
Length of Visible Light 10h 24m
Length of Day
9h 22m
Waning Gibbous, 60% of the Moon is Illuminated
Dec 5
Waning Gibbous
Dec 6
Last Quarter
Dec 13
New
Dec 20
First Quarter
Dec 28
Full

Hourly Weather History & Observations

Time (EST) Temp. Windchill Dew Point Humidity Pressure Visibility Wind Dir Wind Speed Gust Speed Precip Events Conditions
12:53 AM 55.9 °F - 53.1 °F 90% 29.99 in 10.0 mi SSW 10.4 mph 17.3 mph N/A   Clear
1:53 AM 55.0 °F - 52.0 °F 89% 29.98 in 10.0 mi SW 10.4 mph - N/A   Clear
2:53 AM 54.0 °F - 51.1 °F 90% 29.95 in 10.0 mi SW 8.1 mph - N/A   Partly Cloudy
3:53 AM 55.0 °F - 51.1 °F 86% 29.94 in 10.0 mi SW 11.5 mph 17.3 mph N/A   Mostly Cloudy
4:53 AM 54.0 °F - 51.1 °F 90% 29.93 in 9.0 mi WSW 12.7 mph - 0.01 in Rain Light Rain
5:53 AM 53.1 °F - 50.0 °F 89% 29.93 in 10.0 mi SW 9.2 mph - 0.00 in   Overcast
6:53 AM 53.1 °F - 50.0 °F 89% 29.94 in 10.0 mi West 6.9 mph - N/A   Overcast
7:50 AM 55.4 °F - 48.2 °F 77% 29.97 in 10.0 mi WNW 10.4 mph - N/A   Mostly Cloudy
7:53 AM 55.0 °F - 48.9 °F 80% 29.97 in 10.0 mi WNW 11.5 mph - N/A   Overcast
9:53 AM 54.0 °F - 46.0 °F 75% 30.01 in 10.0 mi WNW 11.5 mph - N/A   Overcast
10:08 AM 53.6 °F - 46.4 °F 77% 30.00 in 10.0 mi NW 11.5 mph - N/A   Overcast
10:45 AM 57.2 °F - 44.6 °F 63% 29.99 in 10.0 mi NW 12.7 mph - N/A   Scattered Clouds
10:53 AM 55.9 °F - 42.1 °F 60% 29.99 in 10.0 mi NW 15.0 mph 21.9 mph N/A   Partly Cloudy
11:53 AM 55.0 °F - 36.0 °F 49% 29.98 in 10.0 mi WNW 15.0 mph - N/A   Clear
12:53 PM 55.0 °F - 34.0 °F 45% 29.97 in 10.0 mi WNW 18.4 mph 24.2 mph N/A   Clear
1:53 PM 53.1 °F - 35.1 °F 50% 29.97 in 10.0 mi WNW 11.5 mph - N/A   Clear
2:53 PM 54.0 °F - 34.0 °F 47% 29.99 in 10.0 mi West 17.3 mph 21.9 mph N/A   Clear
3:53 PM 51.1 °F - 30.0 °F 44% 30.01 in 10.0 mi WNW 17.3 mph 24.2 mph N/A   Clear
4:53 PM 48.0 °F - 33.1 °F 56% 30.05 in 10.0 mi NW 15.0 mph - N/A   Scattered Clouds
5:53 PM 46.9 °F - 28.0 °F 48% 30.09 in 10.0 mi NW 16.1 mph 28.8 mph N/A   Mostly Cloudy
6:53 PM 44.1 °F 36.5 °F 23.0 °F 43% 30.11 in 10.0 mi NW 17.3 mph 25.3 mph N/A   Partly Cloudy
7:53 PM 42.1 °F 33.3 °F 21.0 °F 43% 30.13 in 10.0 mi NW 19.6 mph 29.9 mph N/A   Clear
8:53 PM 41.0 °F 32.5 °F 24.1 °F 51% 30.14 in 10.0 mi North 17.3 mph 25.3 mph N/A   Overcast
9:53 PM 39.0 °F 31.4 °F 21.9 °F 50% 30.18 in 10.0 mi NNW 12.7 mph - N/A   Scattered Clouds
10:53 PM 37.9 °F 30.0 °F 21.0 °F 51% 30.20 in 10.0 mi NNW 12.7 mph 20.7 mph N/A   Mostly Cloudy
11:53 PM 36.0 °F 28.0 °F 19.9 °F 52% 30.20 in 10.0 mi NW 11.5 mph 17.3 mph N/A   Mostly Cloudy